Rbgn^[z[y[W
メイン
   新天体発見情報
     Comet C/2005 X1 (Beshore)
投稿するにはまず登録を

スレッド表示 | 新しいものから 前のトピック | 次のトピック | 下へ
投稿者 スレッド
佐藤裕久
投稿日時: 2005-12-10 22:28
モデレータ
登録日: 2005-6-12
居住地: 日本
投稿: 2703
オンライン
Comet C/2005 X1 (Beshore)

Edward C. Beshoreは、12月7.41日 UT、Catalinaの0.68-m Schmidt望遠鏡によるCatalina Sky Survey
の画像から拡散状で少し中央集光のある(視直径15″の広がったようでp.a. 約300°に向かって約5″の尾
のある)彗星を発見した。直ちにNEO Confirmation Pageに公表され、他のCCD観測者によって確認された。

発見位置は次のとおり、

     2005 UT             R.A. (2000) Decl.       Mag.
     Dec.  7.41028   10 13 15.52   +38 35 32.9   19.6

軌道要素と位置推算表は次のとおり、

Orbital elements:
    C/2005 X1 (Beshore)
T 2005 Sept. 30.861 TT                                  MPC
q   3.27707              (2000.0)            P               Q
                   Peri.  142.571       -0.472345       -0.240549
                   Node   301.419       +0.348813       +0.832485
e   1.0            Incl.   96.463       +0.809457       -0.499105
From 22 observations 2005 Dec. 7-9.

Ephemeris:
    C/2005 X1 (Beshore)
Date    TT    R. A. (2000) Decl.     Delta      r     Elong.  Phase   m1
2005 12 06    10 15.00   +38 37.7    2.863    3.337   110.4    16.1  18.0
2005 12 16    10 00.90   +38 21.5    2.728    3.356   122.0    14.4  17.9
2005 12 26    09 42.81   +37 58.3    2.616    3.377   134.3    12.0  17.9
2006 01 05    09 21.19   +37 18.7    2.535    3.401   146.9     9.1  17.8
2006 01 15    08 57.23   +36 14.0    2.494    3.428   158.4     6.1  17.8
2006 01 25    08 32.78   +34 40.3    2.498    3.456   164.4     4.4  17.9

Computer: Marsden

(IAUC 8642、MPEC 2005-X51)
スレッド表示 | 新しいものから 前のトピック | 次のトピック | トップ

投稿するにはまず登録を
 
© 1999 Tsutomu Seki.